This is the latest recevied weather packets stored in our database for station/object WC4PEM-11. If no packets are shown the sender has not sent any weather packets the latest 1 day(s).
| Time | Temp. | Humidity | Pressure | Rain* | Wind** | Luminosity | Snow |
|---|---|---|---|---|---|---|---|
| 1778036883 | 21.67° C | 71% | 1016.8 hPa | 0 mm | 0.89 m/s, 111° | - | - |
| 1778036583 | 21.67° C | 71% | 1016.8 hPa | 0 mm | 0.89 m/s, 108° | - | - |
| 1778036394 | 22.22° C | 71% | 1016.8 hPa | 0 mm | 0.89 m/s, 86° | - | - |
| 1778036283 | 22.22° C | 71% | 1016.8 hPa | 0 mm | 0.89 m/s, 86° | - | - |
| 1778036154 | 22.22° C | 72% | 1016.7 hPa | 0 mm | 0.89 m/s, 137° | - | - |
| 1778035983 | 22.22° C | 72% | 1016.7 hPa | 0 mm | 0.89 m/s, 137° | - | - |
| 1778035835 | 22.22° C | 71% | 1016.8 hPa | 0 mm | 0.45 m/s, 106° | - | - |
| 1778035683 | 22.22° C | 71% | 1016.7 hPa | 0 mm | 0.45 m/s, 99° | - | - |
| 1778035383 | 22.22° C | 71% | 1016.8 hPa | 0 mm | 0.45 m/s, 106° | - | - |
| 1778035083 | 22.22° C | 70% | 1016.8 hPa | 0 mm | 0.45 m/s, 26° | - | - |
| 1778035057 | 22.78° C | 70% | 1016.7 hPa | 0 mm | 0.89 m/s, 129° | - | - |
| 1778034783 | 22.78° C | 70% | 1016.7 hPa | 0 mm | 0.89 m/s, 129° | - | - |
| 1778034483 | 22.78° C | 69% | 1016.8 hPa | 0 mm | 0.89 m/s, 68° | - | - |
| 1778034183 | 22.78° C | 69% | 1016.6 hPa | 0 mm | 0.89 m/s, 120° | - | - |
| 1778033883 | 22.78° C | 69% | 1016.5 hPa | 0 mm | 0.89 m/s, 126° | - | - |
| 1778033741 | 23.33° C | 68% | 1016.5 hPa | 0 mm | 0.89 m/s, 126° | - | - |
| 1778033583 | 22.78° C | 68% | 1016.5 hPa | 0 mm | 0.89 m/s, 137° | - | - |
| 1778033283 | 22.78° C | 68% | 1016.5 hPa | 0 mm | 0.89 m/s, 93° | - | - |
| 1778032983 | 23.33° C | 68% | 1016.5 hPa | 0 mm | 0.89 m/s, 126° | - | - |
| 1778032683 | 23.33° C | 67% | 1016.3 hPa | 0 mm | 0.89 m/s, 126° | - | - |
| 1778032383 | 23.33° C | 67% | 1016.3 hPa | 0 mm | 0.89 m/s, 93° | - | - |
| 1778032083 | 23.33° C | 67% | 1016.2 hPa | 0 mm | 0.89 m/s, 108° | - | - |
| 1778031783 | 23.33° C | 66% | 1016.2 hPa | 0 mm | 0.89 m/s, 124° | - | - |
| 1778031483 | 23.89° C | 66% | 1016.1 hPa | 0 mm | 0.89 m/s, 128° | - | - |
| 1778031316 | 23.89° C | 66% | 1015.8 hPa | 0 mm | 0.89 m/s, 102° | - | - |
* Rain latest hour (hover to see other rain measurements)
** Current wind speed in m/s (hover to see current wind gust speed)